Weather History for Fort Drum, NY

Change the Weather History Date:

Friday, February 8, 2013

  Actual Average Record
Temperature  
Mean Temperature 12 °F -  
Max Temperature 14 °F 26 °F 41 °F (2005)
Min Temperature 10 °F 8 °F -13 °F (2000)
Degree Days  
Heating Degree Days 53    
Moisture  
Dew Point 10 °F    
Average Humidity 91    
Maximum Humidity 93    
Minimum Humidity 79    
Precipitation  
Precipitation 0.00 in - - ()
Snow  
Snow 0.00 in - - ()
Snow Depth 8.00 in    
Sea Level Pressure  
Sea Level Pressure 30.05 in    
Wind  
Wind Speed 12 mph (NE)    
Max Wind Speed 18 mph    
Max Gust Speed 23 mph    
Visibility 2 miles    
Events Fog , Snow    
Averages and records for this station are not official NWS values.
T = Trace of Precipitation, MM = Missing Value Source: NWS Daily Summary

Daily Weather History Graph

Daily Weather History Graph

Search for Another Location

Airport:

Trip Planner

Search our weather history database for the weather conditions in past years. The results will help you decide how hot, cold, wet, or windy it might be!

Date:

Astronomy

Feb. 08, 2013 Rise Set
Actual Time 7:11 AM EST 5:23 PM EST
Civil Twilight 6:41 AM EST 5:53 PM EST
Nautical Twilight 6:07 AM EST 6:27 PM EST
Astronomical Twilight 5:33 AM EST 7:01 PM EST
Moon 5:40 AM EST (2/8) 3:52 PM EST (2/8)
Length of Visible Light 11h 11m
Length of Day
10h 11m
Waning Crescent, 3% of the Moon is Illuminated
Feb 8
Waning Crescent
Feb 10
New
Feb 17
First Quarter
Feb 25
Full
Mar 4
Last Quarter

Hourly Weather History & Observations

Time (EST) Temp. Windchill Dew Point Humidity Pressure Visibility Wind Dir Wind Speed Gust Speed Precip Events Conditions
12:05 AM 12.2 °F 0.7 °F 6.8 °F 79% 30.27 in 4.0 mi East 8.1 mph - N/A Snow Light Snow
12:06 AM 12.2 °F 0.7 °F 6.8 °F 79% 30.27 in 4.0 mi East 8.1 mph - N/A Snow Light Snow
12:15 AM 12.2 °F -0.2 °F 6.8 °F 79% 30.27 in 3.0 mi ENE 9.2 mph - N/A Snow Light Snow
12:36 AM 12.2 °F 0.7 °F 8.6 °F 85% 30.26 in 2.5 mi East 8.1 mph - N/A Snow Light Snow
12:45 AM 12.2 °F -1.0 °F 8.6 °F 85% 30.25 in 2.5 mi SE 10.4 mph - N/A Snow Light Snow
12:46 AM 12.2 °F 0.7 °F 8.6 °F 85% 30.25 in 2.0 mi ESE 8.1 mph - N/A Snow Light Snow
12:55 AM 12.2 °F 0.7 °F 9.7 °F 90% 30.25 in 2.0 mi ESE 8.1 mph - 0.00 in Snow Light Snow
1:05 AM 12.2 °F -1.0 °F 10.4 °F 92% 30.24 in 2.5 mi SE 10.4 mph - N/A Snow Light Snow
1:09 AM 12.2 °F -1.8 °F 10.4 °F 92% 30.24 in 2.5 mi SE 11.5 mph - N/A Snow Light Snow
1:16 AM 14.0 °F -0.8 °F 10.4 °F 86% 30.23 in 2.0 mi SE 13.8 mph - N/A Snow Light Snow
1:21 AM 14.0 °F -0.8 °F 10.4 °F 86% 30.23 in 2.5 mi SE 13.8 mph 18.4 mph N/A Snow Light Snow
1:25 AM 14.0 °F -0.2 °F 10.4 °F 86% 30.23 in 3.0 mi SE 12.7 mph 19.6 mph N/A Snow Light Snow
1:30 AM 14.0 °F 0.5 °F 12.2 °F 93% 30.23 in 2.5 mi SE 11.5 mph - N/A Snow Light Snow
1:33 AM 14.0 °F -0.2 °F 12.2 °F 93% 30.23 in 2.0 mi SE 12.7 mph - N/A Snow Light Snow
1:48 AM 12.2 °F -3.7 °F 10.4 °F 92% 30.23 in 1.8 mi SE 15.0 mph 23.0 mph N/A Snow Light Snow
1:52 AM 12.2 °F -3.7 °F 10.4 °F 92% 30.22 in 1.5 mi SE 15.0 mph - N/A Snow Light Snow
1:55 AM 12.7 °F -3.0 °F 10.8 °F 92% 30.22 in 1.5 mi SE 15.0 mph - 0.00 in Snow Light Snow
2:11 AM 12.2 °F -3.1 °F 10.4 °F 92% 30.22 in 1.8 mi SE 13.8 mph - N/A Snow Light Snow
2:12 AM 12.2 °F -1.8 °F 10.4 °F 92% 30.21 in 2.0 mi ESE 11.5 mph - N/A Snow Light Snow
2:16 AM 12.2 °F -2.5 °F 10.4 °F 92% 30.21 in 2.5 mi SE 12.7 mph - N/A Snow Light Snow
2:27 AM 12.2 °F -1.0 °F 10.4 °F 92% 30.22 in 2.5 mi ESE 10.4 mph - N/A Snow Light Snow
2:37 AM 12.2 °F 2.9 °F 10.4 °F 92% 30.21 in 2.0 mi Variable 5.8 mph - N/A Snow Light Snow
2:38 AM 12.2 °F -0.2 °F 10.4 °F 92% 30.21 in 2.0 mi ESE 9.2 mph - N/A Snow Light Snow
2:43 AM 12.2 °F -1.0 °F 10.4 °F 92% 30.21 in 1.8 mi SE 10.4 mph - N/A Snow Light Snow
2:49 AM 12.2 °F 0.7 °F 10.4 °F 92% 30.21 in 2.0 mi SE 8.1 mph - N/A Snow Light Snow
2:52 AM 12.2 °F -0.2 °F 10.4 °F 92% 30.21 in 2.5 mi SE 9.2 mph - N/A Snow Light Snow
2:55 AM 12.9 °F -0.2 °F 11.1 °F 93% 30.20 in 3.0 mi SE 10.4 mph - 0.00 in Snow Light Snow
2:59 AM 12.2 °F -1.8 °F 10.4 °F 92% 30.20 in 3.0 mi ESE 11.5 mph - N/A Snow Light Snow
3:20 AM 12.2 °F 0.7 °F 10.4 °F 92% 30.19 in 3.0 mi SE 8.1 mph - N/A Snow Light Snow
3:55 AM 12.0 °F -0.4 °F 10.0 °F 92% 30.17 in 3.0 mi ENE 9.2 mph - 0.00 in Snow Light Snow
3:56 AM 12.2 °F 0.7 °F 10.4 °F 92% 30.17 in 2.5 mi ENE 8.1 mph - N/A Snow Light Snow
4:01 AM 12.2 °F 0.7 °F 10.4 °F 92% 30.17 in 2.0 mi ENE 8.1 mph - N/A Snow Light Snow
4:08 AM 12.2 °F 0.7 °F 10.4 °F 92% 30.18 in 2.5 mi NE 8.1 mph - N/A Snow Light Snow
4:11 AM 12.2 °F 0.7 °F 10.4 °F 92% 30.17 in 3.0 mi NE 8.1 mph - N/A Snow Light Snow
4:18 AM 12.2 °F -0.2 °F 10.4 °F 92% 30.17 in 3.0 mi ENE 9.2 mph - N/A Snow Light Snow
4:29 AM 12.2 °F 0.7 °F 10.4 °F 92% 30.17 in 7.0 mi ENE 8.1 mph - N/A Snow Light Snow
4:55 AM 13.8 °F 0.2 °F 11.8 °F 92% 30.15 in 4.0 mi ESE 11.5 mph - 0.00 in Snow Light Snow
5:00 AM 14.0 °F 2.0 °F 12.2 °F 93% 30.15 in 5.0 mi ESE 9.2 mph - N/A Snow Light Snow
5:12 AM 14.0 °F 2.0 °F 12.2 °F 93% 30.15 in 6.0 mi ENE 9.2 mph - N/A Snow Light Snow
5:33 AM 14.0 °F 2.0 °F 12.2 °F 93% 30.15 in 3.0 mi East 9.2 mph - N/A Snow Light Snow
5:34 AM 14.0 °F 2.0 °F 12.2 °F 93% 30.15 in 2.5 mi East 9.2 mph - N/A Snow Light Snow
5:38 AM 14.0 °F 2.0 °F 12.2 °F 93% 30.15 in 2.0 mi East 9.2 mph - N/A Snow Light Snow
5:45 AM 14.0 °F 2.0 °F 12.2 °F 93% 30.15 in 2.0 mi East 9.2 mph - N/A Snow Light Snow
5:47 AM 14.0 °F 2.0 °F 12.2 °F 93% 30.15 in 1.8 mi East 9.2 mph - N/A Snow Light Snow
5:55 AM 13.5 °F 0.5 °F 11.5 °F 92% 30.14 in 1.5 mi East 10.4 mph - 0.00 in Snow Light Snow
6:35 AM 12.2 °F -1.0 °F 10.4 °F 92% 30.13 in 2.0 mi NE 10.4 mph - N/A Snow Light Snow
6:49 AM 12.2 °F -1.0 °F 10.4 °F 92% 30.12 in 1.8 mi NE 10.4 mph - N/A Snow Light Snow
6:55 AM 12.0 °F -2.0 °F 9.9 °F 91% 30.12 in 1.2 mi NE 11.5 mph - 0.00 in Snow Light Snow
7:00 AM 12.2 °F -2.5 °F 10.4 °F 92% 30.12 in 1.5 mi NE 12.7 mph - N/A Snow Light Snow
7:08 AM 12.2 °F -2.5 °F 10.4 °F 92% 30.12 in 1.2 mi NE 12.7 mph - N/A Snow Light Snow
7:25 AM 12.2 °F -3.1 °F 10.4 °F 92% 30.12 in 1.5 mi NE 13.8 mph - N/A Snow Light Snow
7:26 AM 12.2 °F -2.5 °F 10.4 °F 92% 30.12 in 1.5 mi NE 12.7 mph - N/A Snow Light Snow
7:40 AM 10.4 °F -4.1 °F 8.6 °F 92% 30.12 in 1.2 mi NNE 11.5 mph - N/A Snow Light Snow
7:43 AM 10.4 °F -4.8 °F 8.6 °F 92% 30.12 in 1.2 mi NE 12.7 mph - N/A Snow Light Snow
7:46 AM 10.4 °F -4.8 °F 8.6 °F 92% 30.12 in 1.0 mi NE 12.7 mph - N/A Snow Light Snow
7:55 AM 11.1 °F -4.5 °F 9.0 °F 91% 30.12 in 1.0 mi NE 13.8 mph - 0.00 in Snow Light Snow
7:56 AM 10.4 °F -5.4 °F 8.6 °F 92% 30.12 in 1.2 mi NE 13.8 mph - N/A Snow Light Snow
8:00 AM 10.4 °F -5.4 °F 8.6 °F 92% 30.12 in 1.5 mi NE 13.8 mph - N/A Snow Light Snow
8:06 AM 10.4 °F -5.4 °F 8.6 °F 92% 30.12 in 2.0 mi NE 13.8 mph - N/A Snow Light Snow
8:07 AM 10.4 °F -5.4 °F 8.6 °F 92% 30.12 in 1.8 mi NE 13.8 mph - N/A Snow Light Snow
8:08 AM 10.4 °F -5.4 °F 8.6 °F 92% 30.12 in 1.5 mi NE 13.8 mph - N/A Snow Light Snow
8:33 AM 12.2 °F -1.0 °F 8.6 °F 85% 30.11 in 2.0 mi NE 10.4 mph - N/A Snow Light Snow
8:38 AM 12.2 °F -1.0 °F 8.6 °F 85% 30.11 in 2.5 mi NE 10.4 mph - N/A Snow Light Snow
8:46 AM 12.2 °F -1.8 °F 10.4 °F 92% 30.10 in 2.0 mi NE 11.5 mph - N/A Snow Light Snow
8:48 AM 12.2 °F -1.8 °F 10.4 °F 92% 30.10 in 2.0 mi NE 11.5 mph - N/A Snow Light Snow
8:49 AM 12.2 °F -1.8 °F 10.4 °F 92% 30.10 in 1.8 mi NE 11.5 mph - N/A Snow Light Snow
8:52 AM 12.2 °F -1.0 °F 10.4 °F 92% 30.10 in 1.2 mi NE 10.4 mph - N/A Snow Light Snow
8:54 AM 12.2 °F -1.8 °F 10.4 °F 92% 30.10 in 1.0 mi NE 11.5 mph - N/A Snow Light Snow
8:55 AM 12.2 °F -2.5 °F 10.0 °F 91% 30.10 in 1.0 mi NE 12.7 mph - 0.00 in Snow Light Snow
8:58 AM 12.2 °F -2.5 °F 10.4 °F 92% 30.10 in 1.0 mi NE 12.7 mph - N/A Snow Light Snow
8:59 AM 12.2 °F -1.8 °F 10.4 °F 92% 30.10 in 1.0 mi NE 11.5 mph - N/A Snow Light Snow
9:05 AM 12.2 °F -2.5 °F 10.4 °F 92% 30.10 in 1.0 mi NE 12.7 mph - N/A Snow Light Snow
9:13 AM 12.2 °F -1.0 °F 10.4 °F 92% 30.10 in 1.2 mi ENE 10.4 mph - N/A Snow Light Snow
9:25 AM 12.2 °F -3.7 °F 10.4 °F 92% 30.09 in 1.5 mi NE 15.0 mph - N/A Snow Light Snow
9:27 AM 12.2 °F -3.1 °F 10.4 °F 92% 30.09 in 1.2 mi NE 13.8 mph - N/A Snow Light Snow
9:30 AM 12.2 °F -1.8 °F 10.4 °F 92% 30.09 in 1.5 mi ENE 11.5 mph - N/A Snow Light Snow
9:31 AM 12.2 °F -2.5 °F 10.4 °F 92% 30.09 in 1.2 mi ENE 12.7 mph - N/A Snow Light Snow
9:40 AM 12.2 °F -2.5 °F 10.4 °F 92% 30.09 in 1.5 mi NE 12.7 mph - N/A Snow Light Snow
9:51 AM 12.2 °F -3.1 °F 10.4 °F 92% 30.08 in 1.2 mi NE 13.8 mph - N/A Snow Light Snow
9:55 AM 12.9 °F -1.6 °F 10.8 °F 91% 30.08 in 1.2 mi NE 12.7 mph - 0.00 in Snow Light Snow
10:04 AM 14.0 °F -0.2 °F 10.4 °F 86% 30.07 in 1.5 mi ENE 12.7 mph - N/A Snow Light Snow
10:08 AM 14.0 °F -0.8 °F 10.4 °F 86% 30.07 in 2.0 mi NE 13.8 mph - N/A Snow Light Snow
10:16 AM 14.0 °F 0.5 °F 12.2 °F 93% 30.06 in 1.8 mi ENE 11.5 mph - N/A Snow Light Snow
10:54 AM 14.0 °F -0.2 °F 12.2 °F 93% 30.05 in 1.0 mi NE 12.7 mph - N/A Snow Light Snow
10:55 AM 14.4 °F -0.4 °F 12.0 °F 90% 30.05 in 1.0 mi NE 13.8 mph - 0.00 in Snow Light Snow
10:56 AM 14.0 °F -0.8 °F 12.2 °F 93% 30.05 in 1.0 mi NE 13.8 mph - N/A Snow Light Snow
10:58 AM 14.0 °F 0.5 °F 12.2 °F 93% 30.04 in 1.0 mi ENE 11.5 mph - N/A Snow Light Snow
11:00 AM 14.0 °F -0.2 °F 12.2 °F 93% 30.04 in 1.0 mi ENE 12.7 mph - N/A Snow Light Snow
11:03 AM 14.0 °F -0.8 °F 12.2 °F 93% 30.04 in 1.2 mi NE 13.8 mph - N/A Snow Light Snow
11:05 AM 14.0 °F -0.8 °F 12.2 °F 93% 30.04 in 1.2 mi NE 13.8 mph - N/A Snow Light Snow
11:08 AM 14.0 °F -1.4 °F 12.2 °F 93% 30.04 in 1.5 mi NE 15.0 mph - N/A Snow Light Snow
11:24 AM 14.0 °F -0.2 °F 12.2 °F 93% 30.03 in 2.0 mi ENE 12.7 mph - N/A Snow Light Snow
11:25 AM 14.0 °F -0.2 °F 12.2 °F 93% 30.03 in 2.0 mi ENE 12.7 mph - N/A Snow Light Snow
11:26 AM 14.0 °F -0.2 °F 12.2 °F 93% 30.03 in 2.5 mi ENE 12.7 mph - N/A Snow Light Snow
11:29 AM 14.0 °F -0.8 °F 12.2 °F 93% 30.03 in 3.0 mi NE 13.8 mph - N/A Snow Light Snow
11:48 AM 14.0 °F -1.4 °F 12.2 °F 93% 30.01 in 3.0 mi NE 15.0 mph - N/A Snow Light Snow
11:50 AM 14.0 °F -1.4 °F 12.2 °F 93% 30.01 in 3.0 mi NE 15.0 mph - N/A Snow Light Snow
11:55 AM 14.2 °F -1.7 °F 11.8 °F 90% 30.01 in 3.0 mi ENE 16.1 mph - 0.00 in Snow Light Snow
11:57 AM 14.0 °F -2.5 °F 12.2 °F 93% 30.01 in 4.0 mi ENE 17.3 mph - N/A Snow Light Snow
11:59 AM 14.0 °F -2.0 °F 12.2 °F 93% 30.01 in 4.0 mi NE 16.1 mph - N/A Snow Light Snow
12:02 PM 14.0 °F -1.4 °F 12.2 °F 93% 30.01 in 5.0 mi NE 15.0 mph - N/A Snow Light Snow
12:08 PM 14.0 °F -2.0 °F 12.2 °F 93% 30.01 in 6.0 mi NE 16.1 mph - N/A Snow Light Snow
12:09 PM 14.0 °F -1.4 °F 12.2 °F 93% 30.01 in 5.0 mi NE 15.0 mph - N/A Snow Light Snow
12:19 PM 14.0 °F -2.0 °F 12.2 °F 93% 29.99 in 3.0 mi NE 16.1 mph - N/A Snow Light Snow
12:22 PM 14.0 °F -1.4 °F 12.2 °F 93% 29.99 in 2.5 mi ENE 15.0 mph - N/A Snow Light Snow
12:26 PM 14.0 °F -3.0 °F 12.2 °F 93% 29.99 in 2.0 mi NE 18.4 mph - N/A Snow Light Snow
12:27 PM 14.0 °F -2.5 °F 12.2 °F 93% 29.99 in 2.0 mi NE 17.3 mph - N/A Snow Light Snow
12:29 PM 14.0 °F -2.5 °F 12.2 °F 93% 29.99 in 1.8 mi NE 17.3 mph - N/A Snow Light Snow
12:34 PM 14.0 °F -2.0 °F 12.2 °F 93% 29.98 in 1.2 mi NE 16.1 mph - N/A Snow Light Snow
12:44 PM 14.0 °F -0.8 °F 12.2 °F 93% 29.97 in 1.5 mi ENE 13.8 mph - N/A Snow Light Snow
12:55 PM 13.8 °F -1.7 °F 11.1 °F 89% 29.97 in 1.5 mi ENE 15.0 mph - 0.00 in Snow Light Snow
12:57 PM 14.0 °F -0.8 °F 10.4 °F 86% 29.97 in 1.5 mi NE 13.8 mph - N/A Snow Light Snow
1:00 PM 14.0 °F -1.4 °F 12.2 °F 93% 29.96 in 1.2 mi NE 15.0 mph - N/A Snow Light Snow
1:21 PM 14.0 °F -2.0 °F 10.4 °F 86% 29.96 in 1.0 mi NE 16.1 mph - N/A Snow Light Snow
1:26 PM 14.0 °F -1.4 °F 10.4 °F 86% 29.96 in 1.2 mi NE 15.0 mph - N/A Snow Light Snow
1:32 PM 14.0 °F -2.5 °F 10.4 °F 86% 29.96 in 1.2 mi NE 17.3 mph - N/A Snow Light Snow
1:40 PM 12.2 °F -3.7 °F 10.4 °F 92% 29.96 in 1.0 mi NE 15.0 mph - N/A Snow Light Snow
1:42 PM 12.2 °F -3.1 °F 10.4 °F 92% 29.96 in 1.0 mi NE 13.8 mph - N/A Snow Light Snow
1:48 PM 12.2 °F -4.3 °F 8.6 °F 85% 29.95 in 1.0 mi NE 16.1 mph - N/A Snow Light Snow
1:49 PM 12.2 °F -4.8 °F 8.6 °F 85% 29.95 in 1.0 mi NE 17.3 mph - N/A Snow Light Snow
1:51 PM 12.2 °F -4.3 °F 8.6 °F 85% 29.95 in 1.0 mi NE 16.1 mph - N/A Snow Light Snow
1:55 PM 11.7 °F -5.0 °F 9.1 °F 90% 29.95 in 1.0 mi NE 16.1 mph - 0.00 in Snow Light Snow
2:01 PM 12.2 °F -5.3 °F 8.6 °F 85% 29.95 in 1.0 mi NE 18.4 mph - N/A Snow Light Snow
2:02 PM 12.2 °F -5.3 °F 8.6 °F 85% 29.95 in 1.0 mi NE 18.4 mph - N/A Snow Light Snow
2:12 PM 10.4 °F -7.7 °F 8.6 °F 92% 29.95 in 1.0 mi NE 18.4 mph - N/A Snow Light Snow
2:18 PM 10.4 °F -7.7 °F 8.6 °F 92% 29.94 in 1.0 mi NE 18.4 mph - N/A Snow Light Snow
2:20 PM 10.4 °F -7.7 °F 8.6 °F 92% 29.94 in 0.8 mi NNE 18.4 mph - N/A Snow Light Snow
2:21 PM 10.4 °F -7.7 °F 8.6 °F 92% 29.94 in 0.8 mi NNE 18.4 mph - N/A Snow Light Snow
2:30 PM 10.4 °F -7.7 °F 8.6 °F 92% 29.94 in 1.0 mi NNE 18.4 mph - N/A Snow Light Snow
2:37 PM 10.4 °F -7.2 °F 8.6 °F 92% 29.94 in 0.8 mi NNE 17.3 mph - N/A Snow Light Snow
2:51 PM 10.4 °F -6.0 °F 8.6 °F 92% 29.94 in 0.8 mi NNE 15.0 mph - N/A Snow Light Snow
2:55 PM 10.4 °F -6.6 °F 7.9 °F 90% 29.94 in 1.0 mi NNE 16.1 mph - 0.00 in Snow Light Snow
3:10 PM 10.4 °F -6.6 °F 8.6 °F 92% 29.94 in 1.0 mi NNE 16.1 mph - N/A Snow Light Snow
3:14 PM 10.4 °F -4.8 °F 8.6 °F 92% 29.94 in 0.8 mi NNE 12.7 mph - N/A Snow Light Snow
3:15 PM 10.4 °F -4.1 °F 8.6 °F 92% 29.94 in 0.8 mi NNE 11.5 mph - N/A Snow Light Snow
3:21 PM 10.4 °F -6.6 °F 8.6 °F 92% 29.94 in 1.0 mi NNE 16.1 mph - N/A Snow Light Snow
3:28 PM 10.4 °F -5.4 °F 8.6 °F 92% 29.94 in 1.0 mi NNE 13.8 mph - N/A Snow Light Snow
3:30 PM 10.4 °F -6.0 °F 8.6 °F 92% 29.94 in 1.2 mi NNE 15.0 mph - N/A Snow Light Snow
3:43 PM 10.4 °F -5.4 °F 8.6 °F 92% 29.94 in 1.0 mi NNE 13.8 mph - N/A Snow Light Snow
3:53 PM 10.4 °F -5.4 °F 8.6 °F 92% 29.94 in 1.2 mi NNE 13.8 mph - N/A Snow Light Snow
3:55 PM 10.6 °F -5.8 °F 7.7 °F 88% 29.94 in 1.2 mi NE 15.0 mph - 0.00 in Snow Light Snow
3:56 PM 10.4 °F -4.8 °F 8.6 °F 92% 29.94 in 1.0 mi NNE 12.7 mph - N/A Snow Light Snow
4:14 PM 10.4 °F -4.8 °F 8.6 °F 92% 29.94 in 0.8 mi NNE 12.7 mph - N/A Snow Light Snow
4:23 PM 10.4 °F -4.8 °F 8.6 °F 92% 29.95 in 1.0 mi NNE 12.7 mph - N/A Snow Light Snow
4:40 PM 10.4 °F -4.1 °F 8.6 °F 92% 29.96 in 0.8 mi North 11.5 mph - N/A Snow Light Snow
4:44 PM 10.4 °F -4.1 °F 8.6 °F 92% 29.96 in 0.5 mi NNE 11.5 mph - N/A Fog , Snow Light Freezing Fog
4:53 PM 10.4 °F -3.3 °F 8.6 °F 92% 29.96 in 0.8 mi North 10.4 mph - N/A Snow Light Snow
4:55 PM 10.4 °F -1.5 °F 7.9 °F 90% 29.96 in 0.8 mi North 8.1 mph - 0.00 in Snow Light Snow
4:56 PM 10.4 °F -2.4 °F 8.6 °F 92% 29.96 in 1.0 mi North 9.2 mph - N/A Snow Light Snow
4:59 PM 10.4 °F -3.3 °F 8.6 °F 92% 29.96 in 1.0 mi NNE 10.4 mph - N/A Snow Light Snow
5:01 PM 10.4 °F -2.4 °F 8.6 °F 92% 29.96 in 1.0 mi North 9.2 mph - N/A Snow Light Snow
5:11 PM 10.4 °F -3.3 °F 8.6 °F 92% 29.96 in 0.8 mi NNE 10.4 mph - N/A Snow Light Snow
5:28 PM 10.4 °F -3.3 °F 8.6 °F 92% 29.96 in 0.5 mi NNE 10.4 mph - N/A Fog , Snow Light Freezing Fog
5:34 PM 10.4 °F -4.1 °F 8.6 °F 92% 29.96 in 0.5 mi NNE 11.5 mph - N/A Fog , Snow Light Freezing Fog
5:36 PM 10.4 °F -4.1 °F 8.6 °F 92% 29.96 in 0.5 mi NNE 11.5 mph - N/A Fog , Snow Light Freezing Fog
5:37 PM 10.4 °F -3.3 °F 8.6 °F 92% 29.96 in 0.8 mi NNE 10.4 mph - N/A Snow Light Snow
5:38 PM 10.4 °F -3.3 °F 8.6 °F 92% 29.96 in 0.8 mi NNE 10.4 mph - N/A Snow Light Snow
5:42 PM 10.4 °F -4.1 °F 8.6 °F 92% 29.96 in 1.0 mi NNE 11.5 mph - N/A Snow Light Snow
5:45 PM 10.4 °F -3.3 °F 8.6 °F 92% 29.96 in 1.2 mi NNE 10.4 mph - N/A Snow Light Snow
5:50 PM 10.4 °F -4.8 °F 8.6 °F 92% 29.96 in 1.2 mi NE 12.7 mph - N/A Snow Light Snow
5:55 PM 10.9 °F -4.1 °F 8.6 °F 90% 29.96 in 1.0 mi NE 12.7 mph - 0.00 in Snow Light Snow
5:57 PM 10.4 °F -5.4 °F 8.6 °F 92% 29.96 in 1.0 mi NE 13.8 mph - N/A Snow Light Snow
6:08 PM 10.4 °F -4.8 °F 8.6 °F 92% 29.96 in 1.2 mi NE 12.7 mph - N/A Snow Light Snow
6:17 PM 12.2 °F -3.1 °F 8.6 °F 85% 29.96 in 1.0 mi NE 13.8 mph - N/A Snow Light Snow
6:18 PM 12.2 °F -2.5 °F 8.6 °F 85% 29.96 in 1.0 mi NE 12.7 mph - N/A Snow Light Snow
6:30 PM 12.2 °F -2.5 °F 8.6 °F 85% 29.96 in 1.2 mi NE 12.7 mph - N/A Snow Light Snow
6:32 PM 12.2 °F -2.5 °F 8.6 °F 85% 29.96 in 1.2 mi NE 12.7 mph - N/A Snow Light Snow
6:40 PM 12.2 °F -2.5 °F 10.4 °F 92% 29.96 in 1.0 mi ENE 12.7 mph - N/A Snow Light Snow
6:46 PM 12.2 °F -2.5 °F 10.4 °F 92% 29.96 in 1.0 mi ENE 12.7 mph - N/A Snow Light Snow
6:54 PM 12.2 °F -2.5 °F 10.4 °F 92% 29.96 in 1.0 mi ENE 12.7 mph - N/A Snow Light Snow
6:55 PM 12.2 °F -1.8 °F 9.9 °F 90% 29.96 in 1.2 mi ENE 11.5 mph - 0.00 in Snow Light Snow
7:02 PM 12.2 °F -1.8 °F 10.4 °F 92% 29.96 in 1.2 mi ENE 11.5 mph - N/A Snow Light Snow
7:03 PM 12.2 °F -2.5 °F 10.4 °F 92% 29.96 in 1.0 mi ENE 12.7 mph - N/A Snow Light Snow
7:06 PM 12.2 °F -1.0 °F 10.4 °F 92% 29.96 in 1.0 mi ENE 10.4 mph - N/A Snow Light Snow
7:15 PM 12.2 °F -3.1 °F 10.4 °F 92% 29.96 in 1.0 mi ENE 13.8 mph - N/A Snow Light Snow
7:21 PM 12.2 °F -2.5 °F 10.4 °F 92% 29.96 in 1.0 mi East 12.7 mph - N/A Snow Light Snow
7:24 PM 12.2 °F -2.5 °F 10.4 °F 92% 29.95 in 1.0 mi East 12.7 mph - N/A Snow Light Snow
7:32 PM 14.0 °F 0.5 °F 10.4 °F 86% 29.96 in 1.0 mi East 11.5 mph - N/A Snow Light Snow
7:34 PM 14.0 °F 0.5 °F 10.4 °F 86% 29.96 in 1.2 mi East 11.5 mph - N/A Snow Light Snow
7:40 PM 14.0 °F 1.2 °F 12.2 °F 93% 29.96 in 1.2 mi East 10.4 mph - N/A Snow Light Snow
7:43 PM 14.0 °F 2.0 °F 12.2 °F 93% 29.96 in 1.5 mi East 9.2 mph - N/A Snow Light Snow
7:46 PM 14.0 °F 2.0 °F 12.2 °F 93% 29.96 in 1.5 mi East 9.2 mph - N/A Snow Light Snow
7:51 PM 14.0 °F 2.0 °F 12.2 °F 93% 29.97 in 1.5 mi ENE 9.2 mph - N/A Snow Light Snow
7:55 PM 14.0 °F 2.9 °F 11.8 °F 91% 29.97 in 1.8 mi East 8.1 mph - 0.00 in Snow Light Snow
8:08 PM 14.0 °F 3.9 °F 12.2 °F 93% 29.97 in 1.5 mi ENE 6.9 mph - N/A Snow Light Snow
8:16 PM 14.0 °F 2.9 °F 12.2 °F 93% 29.97 in 1.5 mi NE 8.1 mph - N/A Snow Light Snow
8:26 PM 14.0 °F 3.9 °F 12.2 °F 93% 29.97 in 1.5 mi NE 6.9 mph - N/A Snow Light Snow
8:32 PM 14.0 °F 2.0 °F 12.2 °F 93% 29.97 in 2.0 mi NNE 9.2 mph - N/A Snow Light Snow
8:36 PM 14.0 °F 2.0 °F 12.2 °F 93% 29.98 in 2.5 mi NNE 9.2 mph - N/A Snow Light Snow
8:41 PM 14.0 °F 2.0 °F 12.2 °F 93% 29.98 in 3.0 mi NNE 9.2 mph - N/A Snow Light Snow
8:52 PM 14.0 °F 5.1 °F 12.2 °F 93% 29.98 in 4.0 mi North 5.8 mph - N/A Snow Light Snow
8:55 PM 14.4 °F 5.5 °F 12.4 °F 92% 29.99 in 5.0 mi North 5.8 mph - 0.00 in Snow Light Snow
9:25 PM 14.0 °F 1.2 °F 12.2 °F 93% 30.00 in 2.5 mi North 10.4 mph - N/A Snow Light Snow
9:45 PM 14.0 °F 1.2 °F 12.2 °F 93% 30.00 in 3.0 mi NNE 10.4 mph - N/A Snow Light Snow
9:54 PM 14.0 °F 0.5 °F 12.2 °F 93% 30.01 in 3.0 mi NNE 11.5 mph - N/A Snow Light Snow
9:55 PM 13.5 °F -0.9 °F 11.3 °F 91% 30.01 in 3.0 mi NNE 12.7 mph - 0.00 in Snow Light Snow
9:59 PM 14.0 °F -0.2 °F 12.2 °F 93% 30.01 in 2.5 mi NNE 12.7 mph - N/A Snow Light Snow
10:00 PM 14.0 °F -0.2 °F 12.2 °F 93% 30.00 in 2.5 mi NNE 12.7 mph - N/A Snow Light Snow
10:05 PM 14.0 °F -0.2 °F 10.4 °F 86% 30.01 in 2.0 mi NNE 12.7 mph - N/A Snow Light Snow
10:21 PM 14.0 °F -0.2 °F 10.4 °F 86% 30.01 in 1.8 mi NNE 12.7 mph - N/A Snow Light Snow
10:27 PM 14.0 °F -0.8 °F 10.4 °F 86% 30.01 in 2.0 mi NNE 13.8 mph - N/A Snow Light Snow
10:34 PM 12.2 °F -3.1 °F 10.4 °F 92% 30.02 in 2.5 mi NNE 13.8 mph - N/A Snow Light Snow
10:37 PM 12.2 °F -2.5 °F 10.4 °F 92% 30.02 in 2.0 mi NNE 12.7 mph - N/A Snow Light Snow
10:38 PM 12.2 °F -3.1 °F 10.4 °F 92% 30.02 in 2.0 mi NNE 13.8 mph - N/A Snow Light Snow
10:41 PM 12.2 °F -4.3 °F 10.4 °F 92% 30.02 in 1.8 mi NNE 16.1 mph - N/A Snow Light Snow
10:55 PM 12.9 °F -3.4 °F 10.4 °F 90% 30.02 in 1.5 mi NNE 16.1 mph - 0.00 in Snow Light Snow
11:09 PM 12.2 °F -3.1 °F 10.4 °F 92% 30.02 in 1.8 mi NNE 13.8 mph - N/A Snow Light Snow
11:28 PM 12.2 °F -4.3 °F 10.4 °F 92% 30.03 in 1.5 mi NNE 16.1 mph 23.0 mph N/A Snow Light Snow
11:52 PM 12.2 °F -2.5 °F 8.6 °F 85% 30.04 in 2.0 mi NNE 12.7 mph - N/A Snow Light Snow
11:55 PM 11.5 °F -5.8 °F 8.8 °F 89% 30.04 in 2.0 mi NNE 17.3 mph 21.9 mph 0.00 in Snow Light Snow
11:56 PM 12.2 °F -5.3 °F 8.6 °F 85% 30.04 in 2.0 mi NNE 18.4 mph 21.9 mph N/A Snow Light Snow